• en Belgique
  • Liste des pays
  • À 7 jours
  • Température de l'eau
  • Carte satellitaire
  • Carte météo
  • Widgets météo
  • user-avatar
    Se connecter

    Météo par heure à Privolzhskiy

    Ce jour, 27 Mai, Dimanche

    Heure Température Précipitation Vent Pression Humidité
    00:00 +12°C° 0 mm 2 m/s 761 mmHg 71%
    01:00 +12°C° 0 mm 2 m/s 761 mmHg 72%
    02:00 +11°C° 0 mm 3 m/s 761 mmHg 74%
    03:00 +10°C° 0 mm 3 m/s 761 mmHg 75%
    04:00 +11°C° 0 mm 3 m/s 760 mmHg 74%
    05:00 +11°C° 0 mm 4 m/s 760 mmHg 73%
    06:00 +12°C° 0 mm 4 m/s 760 mmHg 72%
    07:00 +14°C° 0 mm 4 m/s 759 mmHg 69%
    08:00 +15°C° 0 mm 4 m/s 759 mmHg 65%
    09:00 +17°C° 0 mm 5 m/s 759 mmHg 61%
    10:00 +20°C° 0 mm 5 m/s 758 mmHg 57%
    11:00 +21°C° 0 mm 5 m/s 757 mmHg 53%
    12:00 +23°C° 0 mm 5 m/s 757 mmHg 49%
    13:00 +23°C° 0 mm 5 m/s 756 mmHg 50%
    14:00 +23°C° 0 mm 5 m/s 756 mmHg 50%
    15:00 +25°C° 0 mm 5 m/s 756 mmHg 51%
    16:00 +23°C° 0,4 mm 5 m/s 755 mmHg 58%
    17:00 +22°C° 0,4 mm 5 m/s 755 mmHg 65%
    18:00 +20°C° 0,4 mm 4 m/s 755 mmHg 72%
    19:00 +19°C° 0,2 mm 4 m/s 755 mmHg 76%
    20:00 +17°C° 0,2 mm 3 m/s 755 mmHg 79%
    21:00 +16°C° 0,2 mm 3 m/s 756 mmHg 83%
    22:00 +13°C° 0 mm 3 m/s 756 mmHg 79%
    23:00 +11°C° 0 mm 3 m/s 757 mmHg 74%

    Demain, 28 Mai, Lundi

    Heure Température Précipitation Vent Pression Humidité
    00:00 +10°C° 0 mm 3 m/s 758 mmHg 70%
    01:00 +9°C° 0 mm 3 m/s 759 mmHg 68%
    02:00 +8°C° 0 mm 3 m/s 759 mmHg 66%
    03:00 +7°C° 0 mm 3 m/s 760 mmHg 63%
    04:00 +7°C° 0 mm 3 m/s 761 mmHg 62%
    05:00 +7°C° 0 mm 3 m/s 761 mmHg 62%
    06:00 +7°C° 0 mm 3 m/s 762 mmHg 61%
    07:00 +9°C° 0 mm 3 m/s 762 mmHg 55%
    08:00 +10°C° 0 mm 3 m/s 762 mmHg 50%
    09:00 +12°C° 0 mm 3 m/s 763 mmHg 45%
    10:00 +13°C° 0 mm 3 m/s 763 mmHg 43%
    11:00 +14°C° 0 mm 3 m/s 763 mmHg 41%
    12:00 +16°C° 0 mm 3 m/s 763 mmHg 39%
    13:00 +16°C° 0 mm 3 m/s 763 mmHg 39%
    14:00 +17°C° 0 mm 3 m/s 763 mmHg 38%
    15:00 +17°C° 0 mm 4 m/s 762 mmHg 38%
    16:00 +17°C° 0 mm 3 m/s 762 mmHg 40%
    17:00 +17°C° 0 mm 3 m/s 762 mmHg 42%
    18:00 +17°C° 0 mm 2 m/s 762 mmHg 43%
    19:00 +15°C° 0 mm 2 m/s 762 mmHg 50%
    20:00 +13°C° 0 mm 1 m/s 762 mmHg 56%
    21:00 +10°C° 0 mm 0 m/s 762 mmHg 62%
    22:00 +11°C° 0 mm 1 m/s 762 mmHg 63%
    23:00 +10°C° 0 mm 1 m/s 762 mmHg 63%

    Après-demain, 29 Mai, Mardi

    Heure Température Précipitation Vent Pression Humidité
    00:00 +9°C° 0 mm 2 m/s 762 mmHg 64%
    01:00 +8°C° 0 mm 2 m/s 762 mmHg 65%
    02:00 +8°C° 0 mm 2 m/s 762 mmHg 67%
    03:00 +8°C° 0 mm 2 m/s 763 mmHg 68%
    04:00 +8°C° 0 mm 2 m/s 762 mmHg 67%
    05:00 +9°C° 0 mm 3 m/s 762 mmHg 66%
    06:00 +10°C° 0 mm 3 m/s 762 mmHg 65%
    07:00 +12°C° 0 mm 3 m/s 762 mmHg 60%
    08:00 +14°C° 0 mm 3 m/s 761 mmHg 54%
    09:00 +17°C° 0 mm 4 m/s 761 mmHg 49%
    10:00 +19°C° 0 mm 4 m/s 760 mmHg 46%
    11:00 +20°C° 0 mm 4 m/s 760 mmHg 43%
    12:00 +21°C° 0 mm 4 m/s 759 mmHg 40%
    13:00 +22°C° 0 mm 4 m/s 759 mmHg 39%
    14:00 +22°C° 0 mm 4 m/s 758 mmHg 39%
    15:00 +23°C° 0 mm 4 m/s 757 mmHg 39%
    16:00 +22°C° 0 mm 4 m/s 757 mmHg 42%
    17:00 +22°C° 0 mm 4 m/s 756 mmHg 45%
    18:00 +22°C° 0 mm 4 m/s 755 mmHg 48%
    19:00 +20°C° 0 mm 3 m/s 755 mmHg 55%
    20:00 +18°C° 0 mm 3 m/s 754 mmHg 62%
    21:00 +16°C° 0 mm 3 m/s 753 mmHg 69%
    22:00 +16°C° 0 mm 3 m/s 753 mmHg 70%
    23:00 +14°C° 0 mm 3 m/s 753 mmHg 71%

    30 Mai, Mercredi

    Heure Température Précipitation Vent Pression Humidité
    00:00 +14°C° 0 mm 3 m/s 752 mmHg 73%
    01:00 +13°C° 0 mm 3 m/s 752 mmHg 75%
    02:00 +13°C° 0 mm 3 m/s 751 mmHg 78%
    03:00 +13°C° 0 mm 4 m/s 751 mmHg 81%
    04:00 +14°C° 0 mm 4 m/s 750 mmHg 80%
    05:00 +14°C° 0 mm 4 m/s 750 mmHg 79%
    06:00 +14°C° 0 mm 4 m/s 749 mmHg 79%
    07:00 +17°C° 0 mm 5 m/s 748 mmHg 73%
    08:00 +20°C° 0 mm 6 m/s 748 mmHg 67%
    09:00 +22°C° 0 mm 7 m/s 747 mmHg 61%
    10:00 +23°C° 0 mm 7 m/s 746 mmHg 56%
    11:00 +24°C° 0 mm 8 m/s 746 mmHg 51%
    12:00 +26°C° 0 mm 8 m/s 745 mmHg 46%
    13:00 +24°C° 0,2 mm 8 m/s 745 mmHg 49%
    14:00 +24°C° 0,2 mm 7 m/s 745 mmHg 51%
    15:00 +23°C° 0,2 mm 7 m/s 745 mmHg 53%
    16:00 +22°C° 0,2 mm 7 m/s 745 mmHg 52%
    17:00 +21°C° 0,2 mm 6 m/s 745 mmHg 51%
    18:00 +21°C° 0,2 mm 5 m/s 745 mmHg 50%
    19:00 +18°C° 0 mm 4 m/s 745 mmHg 54%
    20:00 +16°C° 0 mm 3 m/s 746 mmHg 59%
    21:00 +14°C° 0 mm 2 m/s 746 mmHg 64%
    22:00 +13°C° 0 mm 2 m/s 746 mmHg 64%
    23:00 +13°C° 0 mm 2 m/s 746 mmHg 65%

    31 Mai, Jeudi

    Heure Température Précipitation Vent Pression Humidité
    00:00 +12°C° 0 mm 2 m/s 746 mmHg 65%
    01:00 +12°C° 0 mm 2 m/s 747 mmHg 64%
    02:00 +10°C° 0 mm 2 m/s 747 mmHg 64%
    03:00 +10°C° 0 mm 2 m/s 747 mmHg 63%
    04:00 +10°C° 0 mm 3 m/s 748 mmHg 64%
    05:00 +9°C° 0 mm 3 m/s 748 mmHg 65%
    06:00 +9°C° 0 mm 3 m/s 749 mmHg 65%
    07:00 +10°C° 0 mm 4 m/s 749 mmHg 60%
    08:00 +10°C° 0 mm 4 m/s 749 mmHg 55%
    09:00 +11°C° 0 mm 4 m/s 749 mmHg 50%
    10:00 +12°C° 0 mm 4 m/s 750 mmHg 47%
    11:00 +12°C° 0 mm 4 m/s 750 mmHg 43%
    12:00 +13°C° 0 mm 5 m/s 750 mmHg 40%
    13:00 +13°C° 0 mm 5 m/s 750 mmHg 38%
    14:00 +13°C° 0 mm 5 m/s 750 mmHg 37%
    15:00 +13°C° 0 mm 5 m/s 750 mmHg 35%
    16:00 +13°C° 0 mm 5 m/s 750 mmHg 37%
    17:00 +12°C° 0 mm 5 m/s 750 mmHg 38%
    18:00 +12°C° 0 mm 4 m/s 751 mmHg 39%
    19:00 +10°C° 0 mm 4 m/s 751 mmHg 45%
    20:00 +9°C° 0 mm 3 m/s 751 mmHg 50%
    21:00 +7°C° 0 mm 2 m/s 752 mmHg 56%
    22:00 +6°C° 0 mm 2 m/s 752 mmHg 58%
    23:00 +4°C° 0 mm 3 m/s 752 mmHg 59%

    1 Juin, Vendredi

    Heure Température Précipitation Vent Pression Humidité
    00:00 +4°C° 0 mm 3 m/s 753 mmHg 61%
    01:00 +3°C° 0 mm 3 m/s 753 mmHg 63%
    02:00 +3°C° 0 mm 3 m/s 753 mmHg 64%
    03:00 +2°C° 0 mm 3 m/s 753 mmHg 66%
    04:00 +2°C° 0 mm 3 m/s 754 mmHg 64%
    05:00 +3°C° 0 mm 3 m/s 754 mmHg 63%
    06:00 +3°C° 0 mm 4 m/s 754 mmHg 61%
    07:00 +5°C° 0 mm 4 m/s 754 mmHg 56%
    08:00 +6°C° 0 mm 4 m/s 754 mmHg 51%
    09:00 +7°C° 0 mm 4 m/s 755 mmHg 46%
    10:00 +8°C° 0 mm 4 m/s 755 mmHg 46%
    11:00 +8°C° 0 mm 4 m/s 755 mmHg 45%
    12:00 +8°C° 0 mm 4 m/s 755 mmHg 44%
    13:00 +10°C° 0 mm 4 m/s 755 mmHg 44%
    14:00 +10°C° 0 mm 4 m/s 754 mmHg 45%
    15:00 +10°C° 0 mm 4 m/s 754 mmHg 45%
    16:00 +10°C° 0 mm 4 m/s 754 mmHg 45%
    17:00 +10°C° 0 mm 4 m/s 754 mmHg 45%
    18:00 +10°C° 0 mm 4 m/s 754 mmHg 45%
    19:00 +9°C° 0 mm 3 m/s 754 mmHg 50%
    20:00 +7°C° 0 mm 2 m/s 754 mmHg 55%
    21:00 +7°C° 0 mm 1 m/s 755 mmHg 60%
    22:00 +6°C° 0 mm 1 m/s 755 mmHg 62%
    23:00 +5°C° 0 mm 1 m/s 755 mmHg 64%
    Voir plus